Terug naar catalogus

FENGYUN 1C DEB

ActiefSSO
NORAD 30476·DEBRIS·🇨🇳 China

Gelanceerd May 10, 1999 vanaf Taiyuan Satellite Launch Center

Loading…

Volgende Passages (komende 24 uur)

TLE

VersSource: Space-Track

Epoch: Sep 14, 2026, 03:09 UTC

1 30476U 99025AGP 26257.13187404  .00001619  00000-0  74223-3 0  9993
2 30476  99.1052 308.2769 0044722 232.4606 152.4909 14.22292441  7553

Volg FENGYUN 1C DEB in realtime met AllMySat

Download on the App Store